Terug naar catalogus

STARLINK-2450

ActiefCommunicatieVLEO
NORAD 48113·PAYLOAD·🇺🇸 United States

Gelanceerd Apr 7, 2021 vanaf Cape Canaveral Space Force Station

Loading…

Volgende Passages (komende 24 uur)

TLE

VersSource: CelesTrak SupGP

Epoch: Sep 15, 2026, 02:02 UTC

1 48113C 21027X   26258.08520833  .00024857  00000+0  79927-3 0  2581
2 48113  53.1614   3.8996 0001176  88.6577 188.2189 15.31692996    19

Volg STARLINK-2450 in realtime met AllMySat

Download on the App Store